Meteo Giornale » Osservazioni meteo Stati Uniti (USA) » Bedford Hanscom Fld

ore: 02:51 - Osservazioni Meteo Bedford Hanscom Fld
Lat. 42° 28' N Lon. 71° 17' W Alt. 40 metri s.l.m.

coperto

16 °C

Coperto

Temp. 24 Ore

15 °C

21 °C

Nord

0 Km/h

Dew point 16 °C

Umidità 100 %

Visibilità  10 Km

Il sole sorge alle ore 06:11

Il sole tramonta alle ore 19:17

Data e Ora Cielo e Fenomeni T °C DP °C Um. % Pres. hPa Vis. km Vento km/h
Oggi h: 02:51 coperto Coperto 16 16 100 1020 10 N 0
Oggi h: 02:16 coperto Coperto 16 16 100 1020 10 N 0
Oggi h: 01:51 coperto Coperto 16 16 100 1020 10 N 0
Oggi h: 01:04 coperto Coperto 16 16 100 1020 10 N 0
Oggi h: 00:51 coperto Coperto 16 16 100 1020 10 N 0
Oggi h: 00:27 coperto Coperto 16 15 93 1019 14 N 0
Oggi h: 00:09 foschia Foschia 15 15 100 1019 6 N 0
Oggi h: 00:06 foschia Foschia 15 15 100 1019 2 N 0
Ieri h: 23:59 foschia Foschia 16 16 100 1019 5 N 0
Ieri h: 23:51 molto_nuvoloso Molto Nuvoloso 16 16 100 1019 13 N 0
Ieri h: 22:51 coperto Coperto 16 16 100 1019 10 N 0
Ieri h: 21:51 coperto Coperto 16 16 100 1019 10 N 0
Ieri h: 20:51 coperto Coperto 16 16 100 1018 10 N 0
Ieri h: 19:51 coperto Coperto 17 16 93 1018 10 N 5.5
Ieri h: 18:51 coperto Coperto 17 16 93 1018 10 N 5.5
Ieri h: 18:00 coperto Coperto 18 16 88 1018 10 N 5.5
Ieri h: 17:51 coperto Coperto 18 16 88 1018 10 S 7.4
Ieri h: 16:53 coperto_pioggia Pioggia 17 17 100 1018 13 S 7.4
Ieri h: 16:51 coperto_pioggia Pioggia 17 17 100 1018 11 S 7.4
Ieri h: 15:51 coperto_pioggia Pioggia Foschia 18 17 93 1017 8 E/SE 13
Ieri h: 14:58 coperto_pioggia Pioggia Foschia 18 18 100 1017 2 E 16.7
Ieri h: 14:51 coperto_pioggia Pioggia Foschia 19 18 93 1017 3 E 13
Ieri h: 13:51 coperto_pioggia Pioggia Foschia 19 18 93 1017 3 E/NE 13
Ieri h: 13:41 coperto_pioggia Pioggia Foschia 19 18 93 1017 3 E/NE 13
Ieri h: 13:03 coperto_pioggia Pioggia Foschia 19 18 93 1017 6 E 16.7
Ieri h: 12:51 coperto_pioggia Pioggia 19 18 93 1017 10 E 14.8
Ieri h: 11:51 coperto Coperto 21 18 82 1017 10 E/SE 14.8
Ieri h: 10:51 coperto Coperto 20 18 88 1017 10 SE 9.3
Ieri h: 09:51 coperto_pioggia Pioggia Foschia 19 18 93 1017 5 E/NE 7.4
Ieri h: 09:15 coperto_pioggia Pioggia Foschia 18 18 100 1017 5 N 5.5
Ieri h: 08:58 coperto_pioggia Pioggia Foschia 18 18 100 1017 5 N 5.5
Ieri h: 08:51 coperto_pioggia Pioggia Foschia 18 18 100 1017 2 N 5.5
Ieri h: 08:34 coperto_pioggia Pioggia Foschia 18 18 100 1017 2 N 5.5
Ieri h: 07:51 coperto Coperto 18 18 100 1017 10 N 5.5
Ieri h: 06:51 coperto_pioggia Pioggia 18 17 93 1017 10 N 0
Ieri h: 05:51 coperto Coperto 18 17 93 1017 10 N 0
Ieri h: 04:51 coperto_pioggia Pioggia 18 17 93 1017 10 N 0
Ieri h: 03:51 coperto Coperto 19 16 82 1017 10 S 7.4